This demonstration page uses our WeatherBlox Daily Observations layout. Learn more.

Hourly Observations for March 23, 2020

Temp ( °F °C ) Dew Point ( °F °C ) Humidity (%) Winds ( mph kmh ) Pressure ( in mb ) Visibility ( mi km ) Precip ( " mm )
12:15 am 00:15 Cloudy 43 6 36 2 76 76 SE 8 13 30.54 1034 10 16.0934 0 0
12:35 am 00:35 Cloudy 43 6 36 2 76 76 SE 8 13 30.56 1035 10 16.0934 0 0
12:55 am 00:55 Cloudy 43 6 36 2 76 76 ESE 9 15 30.54 1034 10 16.0934 0 0
1:15 am 01:15 Cloudy 43 6 36 2 76 76 SE 6 9 30.54 1034 10 16.0934 0 0
1:35 am 01:35 Cloudy 43 6 36 2 76 76 E 5 7 30.53 1034 10 16.0934 0 0
1:55 am 01:55 Cloudy 43 6 37 3 81 81 E 7 11 30.52 1034 10 16.0934 0 0
2:15 am 02:15 Cloudy 41 5 37 3 87 87 ESE 5 7 30.52 1034 10 16.0934 0 0
2:35 am 02:35 Cloudy 41 5 37 3 87 87 ESE 7 11 30.5 1033 7 11.26538 0.01 0.254
2:55 am 02:55 Cloudy 41 5 37 3 87 87 SE 6 9 30.49 1033 10 16.0934 0.01 0.254
3:15 am 03:15 Cloudy 41 5 37 3 87 87 ESE 6 9 30.47 1032 10 16.0934 0 0
3:35 am 03:35 Cloudy 39 4 37 3 93 93 ESE 7 11 30.46 1031 7 11.26538 0.01 0.254
3:55 am 03:55 Cloudy 39 4 37 3 93 93 E 6 9 30.45 1031 10 16.0934 0.01 0.254
4:15 am 04:15 Cloudy 39 4 37 3 93 93 ESE 6 9 30.45 1031 10 16.0934 0 0
4:35 am 04:35 Cloudy 37 3 37 3 100 100 E 5 7 30.45 1031 10 16.0934 0 0
4:55 am 04:55 Cloudy 37 3 37 3 100 100 ESE 9 15 30.44 1031 10 16.0934 0 0
5:15 am 05:15 Cloudy 37 3 37 3 100 100 E 9 15 30.44 1031 7 11.26538 0 0
5:35 am 05:35 Cloudy 37 3 37 3 100 100 E 6 9 30.43 1030 7 11.26538 0 0
5:55 am 05:55 Cloudy 37 3 37 3 100 100 ESE 8 13 30.42 1030 7 11.26538 0.01 0.254
6:15 am 06:15 Cloudy 37 3 37 3 100 100 ESE 8 13 30.41 1030 10 16.0934 0 0
6:35 am 06:35 Cloudy 37 3 37 3 100 100 E 3 6 30.4 1029 10 16.0934 0 0
6:55 am 06:55 Cloudy 37 3 37 3 100 100 ENE 5 7 30.4 1029 10 16.0934 0 0
7:15 am 07:15 Cloudy 37 3 37 3 100 100 E 9 15 30.37 1028 10 16.0934 0 0
7:35 am 07:35 Cloudy 37 3 37 3 100 100 E 7 11 30.38 1029 10 16.0934 0 0
7:55 am 07:55 Cloudy 37 3 37 3 100 100 ENE 5 7 30.38 1029 2.5 4.02335 0 0
8:15 am 08:15 Cloudy 37 3 37 3 100 100 NE 6 9 30.38 1029 1.5 2.41401 0.02 0.508
8:35 am 08:35 Cloudy 37 3 37 3 100 100 NE 5 7 30.38 1029 1.5 2.41401 0.04 1.016
8:55 am 08:55 Cloudy 37 3 37 3 100 100 NE 6 9 30.37 1028 2 3.21868 0.05 1.27
9:15 am 09:15 Cloudy 37 3 37 3 100 100 ENE 3 6 30.35 1028 3 4.82802 0 0
10:15 am 10:15 Cloudy 37 3 37 3 100 100 NE 5 7 30.36 1028 1.75 2.816345 0.01 0.254
10:35 am 10:35 Cloudy 37 3 37 3 100 100 NNE 5 7 30.34 1027 2 3.21868 0.02 0.508
10:55 am 10:55 Cloudy 37 3 37 3 100 100 NE 5 7 30.33 1027 2.5 4.02335 0.02 0.508
11:55 am 11:55 Cloudy 37 3 37 3 100 100 NE 5 7 30.29 1026 4 6.43736 0 0
12:15 pm 12:15 Cloudy 39 4 39 4 100 100 NNE 3 6 30.27 1025 4 6.43736 0 0
12:35 pm 12:35 Cloudy 37 3 37 3 100 100 NE 7 11 30.24 1024 2 3.21868 0 0
2:15 pm 14:15 Cloudy 37 3 37 3 100 100 NNE 6 9 30.15 1021 7 11.26538 0 0
2:35 pm 14:35 Cloudy 39 4 39 4 100 100 N 5 7 30.17 1022 10 16.0934 0 0
2:55 pm 14:55 Cloudy 39 4 39 4 100 100 N 5 7 30.16 1021 10 16.0934 0.01 0.254
3:15 pm 15:15 Cloudy 39 4 39 4 100 100 NNE 5 7 30.15 1021 7 11.26538 0 0
3:35 pm 15:35 Cloudy 39 4 39 4 100 100 N 7 11 30.14 1021 2 3.21868 0 0
3:55 pm 15:55 Cloudy 37 3 37 3 100 100 NNE 6 9 30.12 1020 3 4.82802 0 0
4:15 pm 16:15 Cloudy 41 5 41 5 100 100 NNE 6 9 30.1 1019 10 16.0934 0 0
6:15 pm 18:15 Cloudy 41 5 41 5 100 100 Calm 30.08 1019 10 16.0934 0 0
6:35 pm 18:35 Cloudy 41 5 41 5 100 100 Calm 30.08 1019 10 16.0934 0 0
6:55 pm 18:55 Cloudy 43 6 41 5 93 93 Calm 30.07 1018 10 16.0934 0 0
7:15 pm 19:15 Cloudy 43 6 41 5 93 93 Calm 30.08 1019 10 16.0934 0 0
7:35 pm 19:35 Cloudy 43 6 41 5 93 93 Calm 30.08 1019 10 16.0934 0 0
7:55 pm 19:55 Cloudy 43 6 41 5 93 93 Calm 30.08 1019 10 16.0934 0 0
8:15 pm 20:15 Cloudy 41 5 41 5 100 100 Calm 30.09 1019 10 16.0934 0 0
8:35 pm 20:35 Cloudy 41 5 41 5 100 100 Calm 30.09 1019 10 16.0934 0 0
8:55 pm 20:55 Cloudy 41 5 41 5 100 100 Calm 30.09 1019 10 16.0934 0 0
9:15 pm 21:15 Cloudy 41 5 41 5 100 100 WNW 5 7 30.09 1019 10 16.0934 0 0
9:35 pm 21:35 Mostly Cloudy 39 4 39 4 100 100 W 5 7 30.11 1019 10 16.0934 0 0
9:55 pm 21:55 Mostly Cloudy 41 5 41 5 100 100 W 3 6 30.1 1019 10 16.0934 0 0
10:15 pm 22:15 Cloudy 41 5 41 5 100 100 Calm 30.1 1019 10 16.0934 0 0
10:35 pm 22:35 Cloudy 41 5 41 5 100 100 WSW 5 7 30.1 1019 10 16.0934 0 0
10:55 pm 22:55 Cloudy 41 5 41 5 100 100 NW 3 6 30.11 1020 10 16.0934 0 0
11:15 pm 23:15 Cloudy 41 5 41 5 100 100 Calm 30.11 1020 10 16.0934 0 0
11:35 pm 23:35 Cloudy 41 5 41 5 100 100 Calm 30.11 1020 10 16.0934 0 0
11:55 pm 23:55 Cloudy 41 5 41 5 100 100 Calm 30.11 1020 10 16.0934 0 0

Powered by AerisWeather